CHINASAT 16 (SJ-13) (42662 NORAD) Tracking and Keplerian Element Data

This shows tracking and keplerian element data for the satellite.

Feedback or suggestion? Click here.




ElementValue
Catalog42662
NameCHINASAT 16 (SJ-13)
Epoch Orbit473
Epoch Day198.87176294
Epoch Year2018
RAAN94.2234
Inclination0.0751
Eccentricity0.0005094
Argument of Perigee124.4501
Mean Anonmoly141.2717
Mean Motion1.00269117
Decay Rate-3.72E-06
L11 42662U 17018A 18198.87176294 -.00000372 00000-0 00000-0 0 9991
L22 42662 0.0751 94.2234 0005094 124.4501 141.2717 1.00269117 4738

Live tracking and technical data element details for CHINASAT 16 (SJ-13) (NORAD 42662). CHINASAT 16 (SJ-13) can be tracked NOW for your location showing map with azimuth and elevation plus other details from your city location.

Track the satellite on the map from your city or location and see movement details for azimuth, elevation, latitude, longitude, range, height, and movement on the map or in text.







IsCatalogInMostPopularTable: catalog: 42662, numindb: 78
Update: records affected: 1



GetName: 42662 CHINASAT 16 (SJ-13)

Hit Count: updated at: Thu, 19 Jul 2018 21:21:40 GMT